Regional Weather Roundup
Issued by NWS Little Rock, AR

Home | Current Version | Previous Version | Text Only | Print | Product List | Glossary On
Versions: 1 2 3 4 5 6 7 8 9 10 11 12 13 14 15 16 17 18 19 20 21 22 23 24 25 26 27 28 29 30 31 32 33 34 35 36 37 38 39 40 41 42 43 44 45 46 47 48 49 50
000
ASUS44 KLZK 211205
RWRLZK

WEATHER ROUNDUP FOR ARKANSAS
NATIONAL WEATHER SERVICE LITTLE ROCK AR
700 AM CDT TUE OCT 21 2014

NOTE: "FAIR" INDICATES FEW OR NO CLOUDS BELOW 12,000 FEET WITH NO
SIGNIFICANT WEATHER AND/OR OBSTRUCTIONS TO VISIBILITY.

ARZ001-003-010-029-211300-
NORTHWEST ARKANSAS

CITY           SKY/WX    TMP DP  RH WIND       PRES   REMARKS
FAYETTEVILLE   FOG       48  48 100 CALM      30.12R VSB 1/4
6HR MIN TEMP:  48; 6HR MAX TEMP:  51;

FORT SMITH     PTCLDY    57  55  93 S5        30.08R FOG
6HR MIN TEMP:  56; 6HR MAX TEMP:  60;

HARRISON       FOG       52  52 100 W3        30.11S VSB 1/2
6HR MIN TEMP:  51; 6HR MAX TEMP:  58;

BENTONVILLE    CLOUDY    48  46  93 CALM      30.12R VSB 1/2
6HR MIN TEMP:  46; 6HR MAX TEMP:  52;

ROGERS         CLOUDY    52  51  97 CALM      30.12S VSB 1/4
6HR MIN TEMP:  49; 6HR MAX TEMP:  54;

SILOAM SPGS    CLOUDY    48  45  87 E3        30.12R VSB 1/4
6HR MIN TEMP:  46; 6HR MAX TEMP:  54;

HIGHFILL       FOG       49  49 100 CALM      30.11R VSB 1/4
6HR MIN TEMP:  47; 6HR MAX TEMP:  50;

SPRINGDALE     FOG       50  50 100 CALM      30.13S VSB 1/4
$$

ARZ004-005-016-211300-
NORTH CENTRAL ARKANSAS

CITY           SKY/WX    TMP DP  RH WIND       PRES   REMARKS
BATESVILLE     CLEAR     55  54  94 W3        30.09R
6HR MIN TEMP:  55; 6HR MAX TEMP:  57;

FLIPPIN        CLOUDY    50  45  81 CALM      30.11R VSB<1/4
6HR MIN TEMP:  48; 6HR MAX TEMP:  55;

MTN HOME       FOG       50  49  96 CALM      30.10R VSB 1/2
6HR MIN TEMP:  50; 6HR MAX TEMP:  59;

$$

ARZ040-041-211300-
WEST CENTRAL ARKANSAS

CITY           SKY/WX    TMP DP  RH WIND       PRES   REMARKS
MENA           CLOUDY    59  57  94 CALM      30.10R
MOUNT IDA      CLOUDY    55  54  96 CALM      30.07R FOG
6HR MIN TEMP:  53; 6HR MAX TEMP:  56;

$$

ARZ009-017-025-026-028-211300-
NORTHEAST ARKANSAS

CITY           SKY/WX    TMP DP  RH WIND       PRES   REMARKS
CORNING        FAIR      48  48 100 CALM      30.08S
JONESBORO      CLEAR     51  49  92 CALM      30.07R
6HR MIN TEMP:  51; 6HR MAX TEMP:  62;

NEWPORT        FOG       52  52 100 NW5       30.09R VSB 1
6HR MIN TEMP:  53; 6HR MAX TEMP:  58;

WALNUT RIDGE   CLEAR     48  45  87 CALM      30.06F
6HR MIN TEMP:  48; 6HR MAX TEMP:  55;

BLYTHEVILLE    CLEAR     49  48  97 CALM      30.07R FOG
6HR MIN TEMP:  49; 6HR MAX TEMP:  57;

$$

ARZ022-023-033-042-044-211300-
CENTRAL ARKANSAS

CITY           SKY/WX    TMP DP  RH WIND       PRES   REMARKS
LITTLE ROCK    CLEAR     54  51  90 W5        30.08R
6HR MIN TEMP:  52; 6HR MAX TEMP:  57;

N LITTLE ROCK    N/A     58  57  97 NW3       30.08R
6HR MIN TEMP:  58; 6HR MAX TEMP:  60;

JACKSONVILLE   CLEAR     49  48  95 CALM      30.07S
6HR MIN TEMP:  48; 6HR MAX TEMP:  55;

SEARCY         CLEAR     54  52  94 N5        30.09R FOG
HOT SPRINGS    FOG       55  55 100 CALM      30.09R VSB 1/4
6HR MIN TEMP:  53; 6HR MAX TEMP:  57; 6HR PCP: TRACE;

RUSSELLVILLE   PTCLDY    50  49  96 CALM      30.08R FOG
6HR MIN TEMP:  50; 6HR MAX TEMP:  55;

$$

ARZ036-211300-
EAST ARKANSAS

CITY           SKY/WX    TMP DP  RH WIND       PRES   REMARKS
WEST MEMPHIS   CLEAR     52  52 100 CALM      30.05R FOG
6HR MIN TEMP:  51; 6HR MAX TEMP:  58;

$$

ARZ050-053-066-070-073-211300-
SOUTHWEST ARKANSAS

CITY           SKY/WX    TMP DP  RH WIND       PRES   REMARKS
ARKADELPHIA    FAIR      58  58 100 CALM      30.08R
6HR MIN TEMP:  56; 6HR MAX TEMP:  59;

CAMDEN         CLOUDY    57  55  94 CALM      30.07S
TEXARKANA      CLOUDY    58  57  97 E3        30.09R
6HR MIN TEMP:  54; 6HR MAX TEMP:  61;

EL DORADO      CLOUDY    58  56  93 CALM      30.08R
6HR MIN TEMP:  53; 6HR MAX TEMP:  58;

DE QUEEN       FOG       54  53  97 N3        30.06R VSB 1/2
6HR MIN TEMP:  53; 6HR MAX TEMP:  56;

$$

ARZ056-057-069-211300-
SOUTHEAST ARKANSAS

CITY           SKY/WX    TMP DP  RH WIND       PRES   REMARKS
PINE BLUFF     CLEAR     55  53  93 CALM      30.07R
6HR MIN TEMP:  55; 6HR MAX TEMP:  60;

STUTTGART      MOCLDY    54  50  87 CALM      30.08R VSB 1/4
6HR MIN TEMP:  52; 6HR MAX TEMP:  57;

MONTICELLO     CLOUDY    59  56  89 CALM      30.06R
6HR MIN TEMP:  54; 6HR MAX TEMP:  59; 6HR PCP: TRACE;


$$




USA.gov is the U.S. government's official web portal to all federal, state and local government web resources and services.